Volver al catálogo

FENGYUN 1C DEB

ActivoSSO
NORAD 32128·DEBRIS·🇨🇳 China

Lanzado May 10, 1999 desde Taiyuan Satellite Launch Center

Loading…

Próximos Pases (próximas 24 horas)

TLE

ActualizadoSource: Space-Track

Época: Sep 11, 2026, 20:39 UTC

1 32128U 99025CRW 26254.86045606  .00000779  00000-0  32092-3 0  9997
2 32128  98.9983 300.4421 0395256 192.9475 166.1304 13.94833752667921

Sigue FENGYUN 1C DEB en tiempo real con AllMySat

Download on the App Store